Weather History for KEWB - June, 2014

Change the Weather History Date:

Wednesday, June 4, 2014

  Actual Average Record
Temperature  
Mean Temperature 60 °F -  
Max Temperature 66 °F - - ()
Min Temperature 55 °F - - ()
Degree Days  
Heating Degree Days 6    
Growing Degree Days 10 (Base 50)    
Moisture  
Dew Point 55 °F    
Average Humidity 83    
Maximum Humidity 96    
Minimum Humidity 65    
Precipitation  
Precipitation 0.21 in - - ()
Sea Level Pressure  
Sea Level Pressure 29.83 in    
Wind  
Wind Speed 5 mph (SE)    
Max Wind Speed 8 mph    
Max Gust Speed -    
Visibility 8 miles    
Events Rain    
T = Trace of Precipitation, MM = Missing Value Source: NWS Daily Summary

Daily Weather History Graph

Daily Weather History Graph

Search for Another Location

Airport or City:

Trip Planner

Search our weather history database for the weather conditions in past years. The results will help you decide how hot, cold, wet, or windy it might be!

Date:

Astronomy

Jun. 04, 2014 Rise Set
Actual Time 5:10 AM EDT 8:14 PM EDT
Civil Twilight 4:37 AM EDT 8:47 PM EDT
Nautical Twilight 3:54 AM EDT 9:30 PM EDT
Astronomical Twilight 3:03 AM EDT 10:21 PM EDT
Moon 11:30 AM EDT (6/4) 12:07 AM EDT (6/4)
Length of Visible Light 16h 10m
Length of Day
15h 03m
Waxing Crescent, 39% of the Moon is Illuminated
Jun 4
Waxing Crescent
Jun 5
First Quarter
Jun 13
Full
Jun 19
Last Quarter
Jun 27
New

Hourly Weather History & Observations

Time (EDT) Temp. Dew Point Humidity Pressure Visibility Wind Dir Wind Speed Gust Speed Precip Events Conditions
12:53 AM 59.0 °F 48.2 °F 67% 29.88 in 10.0 mi East 4.6 mph - N/A   Overcast
1:53 AM 59.0 °F 48.2 °F 67% 29.87 in 10.0 mi SE 5.8 mph - N/A   Mostly Cloudy
2:53 AM 57.2 °F 50.0 °F 77% 29.86 in 10.0 mi ESE 5.8 mph - N/A   Partly Cloudy
3:53 AM 57.9 °F 54.0 °F 87% 29.85 in 10.0 mi East 3.5 mph - N/A   Mostly Cloudy
4:16 AM 57.9 °F 54.0 °F 87% 29.85 in 10.0 mi East 5.8 mph - N/A   Mostly Cloudy
4:24 AM 57.9 °F 54.0 °F 87% 29.85 in 10.0 mi NNE 3.5 mph - N/A   Overcast
4:53 AM 57.9 °F 54.0 °F 87% 29.86 in 10.0 mi ESE 5.8 mph - N/A   Overcast
5:53 AM 57.0 °F 54.0 °F 89% 29.88 in 4.0 mi ESE 3.5 mph - 0.05 in Rain Rain
6:53 AM 55.9 °F 53.1 °F 90% 29.87 in 3.0 mi SSE 4.6 mph - 0.14 in Rain Rain
7:53 AM 57.0 °F 53.1 °F 87% 29.87 in 10.0 mi ESE 8.1 mph - 0.02 in Rain Light Rain
8:53 AM 57.9 °F 53.1 °F 84% 29.88 in 10.0 mi ESE 5.8 mph - 0.00 in   Overcast
9:19 AM 59.0 °F 55.0 °F 87% 29.88 in 10.0 mi ESE 6.9 mph - N/A   Mostly Cloudy
9:53 AM 59.0 °F 53.1 °F 81% 29.88 in 10.0 mi ESE 5.8 mph - N/A   Mostly Cloudy
10:00 AM 59.0 °F 53.1 °F 81% 29.88 in 10.0 mi ESE 3.5 mph - N/A   Overcast
10:53 AM 62.1 °F 54.0 °F 75% 29.86 in 10.0 mi Calm Calm - N/A   Overcast
11:00 AM 62.1 °F 55.0 °F 78% 29.86 in 10.0 mi Calm Calm - N/A   Overcast
11:34 AM 64.0 °F 54.0 °F 70% 29.85 in 10.0 mi SSE 6.9 mph - N/A   Overcast
11:49 AM 64.4 °F 55.4 °F 73% 29.85 in 10.0 mi SE 4.6 mph - N/A   Scattered Clouds
11:50 AM 64.0 °F 55.9 °F 75% 29.85 in 10.0 mi SE 6.9 mph - N/A   Scattered Clouds
11:57 AM 64.9 °F 55.9 °F 73% 29.85 in 10.0 mi SSE 6.9 mph - N/A   Overcast
12:53 PM 64.0 °F 55.9 °F 75% 29.84 in 10.0 mi SE 5.8 mph - N/A   Overcast
1:53 PM 64.9 °F 57.0 °F 75% 29.82 in 10.0 mi SSE 8.1 mph - N/A   Overcast
2:28 PM 64.9 °F 55.9 °F 73% 29.82 in 10.0 mi SSE 6.9 mph - N/A   Overcast
2:53 PM 64.0 °F 55.0 °F 73% 29.81 in 10.0 mi SSE 8.1 mph - N/A   Overcast
3:00 PM 64.9 °F 53.1 °F 65% 29.81 in 10.0 mi SSE 8.1 mph - N/A   Overcast
3:53 PM 64.9 °F 54.0 °F 68% 29.80 in 10.0 mi South 8.1 mph - N/A   Overcast
4:53 PM 63.0 °F 57.0 °F 81% 29.80 in 10.0 mi SE 3.5 mph - N/A   Overcast
5:11 PM 62.1 °F 57.0 °F 84% 29.80 in 8.0 mi SE 5.8 mph - N/A   Overcast
5:38 PM 61.0 °F 59.0 °F 93% 29.79 in 2.5 mi East 3.5 mph - N/A   Overcast
5:53 PM 61.0 °F 57.9 °F 90% 29.79 in 2.5 mi East 4.6 mph - N/A   Overcast
5:56 PM 61.0 °F 57.9 °F 90% 29.79 in 3.0 mi East 4.6 mph - N/A   Overcast
6:53 PM 61.0 °F 59.0 °F 93% 29.78 in 8.0 mi SE 6.9 mph - N/A   Overcast
7:40 PM 60.1 °F 57.9 °F 93% 29.78 in 10.0 mi ESE 5.8 mph - N/A   Overcast
7:53 PM 60.1 °F 57.9 °F 93% 29.79 in 10.0 mi SE 4.6 mph - N/A   Overcast
8:53 PM 60.1 °F 57.9 °F 93% 29.79 in 3.0 mi ESE 4.6 mph - N/A   Overcast
9:10 PM 60.1 °F 57.9 °F 93% 29.79 in 2.5 mi ESE 4.6 mph - N/A   Overcast
9:43 PM 60.1 °F 57.9 °F 93% 29.79 in 3.0 mi SE 5.8 mph - N/A   Overcast
9:53 PM 60.1 °F 59.0 °F 96% 29.79 in 2.5 mi SSE 4.6 mph - N/A   Overcast
10:28 PM 60.1 °F 59.0 °F 96% 29.78 in 1.5 mi SSE 6.9 mph - N/A   Overcast
10:53 PM 60.8 °F 59.0 °F 94% 29.78 in 1.5 mi Calm Calm - N/A   Overcast
11:40 PM 60.1 °F 59.0 °F 96% 29.79 in 2.5 mi Calm Calm - N/A   Overcast
11:53 PM 60.1 °F 59.0 °F 96% 29.79 in 1.5 mi Calm Calm - N/A   Overcast